Date String (YYYY-MM-DD hh:mm:ss) UTC,Instrument flags,absolute air pressure of the measurement (hPa),sample flow rate (lpm),inlet stack bypass flow (lpm),air temperature of the measurement (°C),ambient temperature measured by the external sensor (°C),aerosol sample conditioner tube jacket temperature (°C),OPC LED temperature (°C),internal box temperature (°C),relative humidity of the measurement (%),span deviation,mass concentration of particles derived from Lorenz-Mie calculation of OPC scattering (μg/m³),mass concentration of particles derived from Lorenz-Mie calculation of OPC scattering (μg/m³),mass concentration of particles derived from Lorenz-Mie calculation of OPC scattering (μg/m³)
DateTimeUTC,F1_M11,P_M11,Q1_M11,Q2_M11,T1_M11,T2_M11,T3_M11,T4_M11,T5_M11,U1_M11,ZSPAN_M11,X0_M11,X2_M11,X1_M11
2024-03-27 01:00:00,SystemResetWarning,0822.0,5.00,000.00,021.0,020.3,000.0,029.4,022.8,17.1,0000.9,0017.94,0011.17,0010.56
2024-03-27 01:01:00,SystemResetWarning,0821.8,5.00,000.00,020.9,020.3,000.0,029.4,022.8,17.1,0000.9,0018.25,0011.12,0010.51
2024-03-27 01:02:00,SystemResetWarning,0822.0,4.99,000.00,021.0,020.3,000.0,029.4,022.8,17.1,0001.1,0018.06,0011.09,0010.49
2024-03-27 01:03:00,SystemResetWarning,0821.9,5.00,000.00,021.0,020.3,000.0,029.4,022.8,17.1,0001.1,0017.71,0011.00,0010.41
2024-03-27 01:04:00,SystemResetWarning,0822.0,5.00,000.00,021.0,020.3,000.0,029.4,022.8,17.0,0001.1,0017.00,0010.92,0010.34
2024-03-27 01:05:00,SystemResetWarning,0821.9,5.00,000.00,020.9,020.3,000.0,029.4,022.8,17.2,0001.2,0016.13,0010.83,0010.29
2024-03-27 01:06:00,SystemResetWarning,0822.0,5.00,000.00,020.9,020.3,000.0,029.5,022.8,17.5,0001.0,0015.49,0010.74,0010.23
2024-03-27 01:07:00,SystemResetWarning,0822.0,5.01,000.00,020.9,020.3,000.0,029.5,022.8,17.6,0001.4,0015.24,0010.66,0010.18
2024-03-27 01:08:00,SystemResetWarning,0822.0,5.00,000.00,020.9,020.3,000.0,029.5,022.8,17.7,0001.0,0015.55,0010.59,0010.13
2024-03-27 01:09:00,SystemResetWarning,0822.0,5.00,000.00,021.0,020.3,000.0,029.5,022.8,17.8,0001.1,0015.80,0010.55,0010.08
2024-03-27 01:10:00,SystemResetWarning,0822.0,5.00,000.00,020.9,020.3,000.0,029.5,022.8,17.7,0001.0,0016.03,0010.50,0010.05
2024-03-27 01:11:00,SystemResetWarning,0822.0,4.99,000.00,021.0,020.3,000.0,029.5,022.8,17.8,0000.9,0016.89,0010.48,0010.03
2024-03-27 01:12:00,SystemResetWarning,0821.9,5.01,000.00,020.9,020.3,000.0,029.5,022.8,17.8,0001.0,0016.32,0010.44,0009.99
2024-03-27 01:13:00,SystemResetWarning,0821.5,5.01,000.00,020.9,020.2,000.0,029.5,022.8,17.6,0001.1,0017.58,0010.40,0009.96
2024-03-27 01:14:00,SystemResetWarning,0821.5,5.00,000.00,020.9,020.2,000.0,029.5,022.8,17.5,0000.9,0018.33,0010.38,0009.95
2024-03-27 01:15:00,SystemResetWarning,0821.5,4.99,000.00,020.9,020.2,000.0,029.5,022.8,17.5,0000.7,0017.65,0010.35,0009.93
2024-03-27 01:16:00,SystemResetWarning,0821.6,4.99,000.00,020.9,020.2,000.0,029.5,022.8,17.6,0000.6,0017.41,0010.33,0009.91
2024-03-27 01:17:00,SystemResetWarning,0821.6,5.00,000.00,020.9,020.2,000.0,029.5,022.8,17.5,0001.0,0017.75,0010.35,0009.92
2024-03-27 01:18:00,SystemResetWarning,0821.6,5.01,000.00,020.9,020.2,000.0,029.5,022.7,17.4,0000.9,0018.24,0010.36,0009.92
2024-03-27 01:19:00,SystemResetWarning,0821.5,5.01,000.00,020.9,020.2,000.0,029.5,022.8,17.4,0000.9,0018.08,0010.33,0009.90
2024-03-27 01:20:00,SystemResetWarning,0821.5,5.00,000.00,020.9,020.2,000.0,029.5,022.7,17.4,0001.1,0017.73,0010.25,0009.86
2024-03-27 01:21:00,SystemResetWarning,0821.7,5.00,000.00,020.9,020.2,000.0,029.5,022.7,17.3,0001.1,0017.33,0010.20,0009.82
2024-03-27 01:22:00,SystemResetWarning,0821.6,5.00,000.00,020.9,020.1,000.0,029.5,022.7,17.3,0001.4,0016.59,0010.16,0009.79
2024-03-27 01:23:00,SystemResetWarning,0821.5,5.00,000.00,020.9,020.1,000.0,029.5,022.7,17.3,0001.9,0016.21,0010.11,0009.77
2024-03-27 01:24:00,SystemResetWarning,0821.6,4.99,000.00,020.9,020.1,000.0,029.5,022.7,17.2,0002.0,0015.31,0010.08,0009.75
2024-03-27 01:25:00,SystemResetWarning,0821.6,4.99,000.00,020.9,020.1,000.0,029.5,022.7,17.2,0002.2,0013.94,0010.07,0009.73
2024-03-27 01:26:00,SystemResetWarning,0821.6,5.00,000.00,020.9,020.1,000.0,029.5,022.7,17.0,0002.5,0013.91,0010.06,0009.70
2024-03-27 01:27:00,SystemResetWarning,0821.6,5.01,000.00,020.9,020.1,000.0,029.5,022.7,17.1,0003.0,0013.87,0010.03,0009.67
2024-03-27 01:28:00,SystemResetWarning,0821.6,5.01,000.00,020.9,020.1,000.0,029.5,022.7,17.1,0003.0,0013.46,0010.00,0009.64
2024-03-27 01:29:00,SystemResetWarning,0821.6,5.00,000.00,020.9,020.1,000.0,029.5,022.7,16.9,0003.0,0013.13,0009.93,0009.58
2024-03-27 01:30:00,SystemResetWarning,0821.6,5.01,000.00,020.9,020.1,000.0,029.5,022.7,16.8,0003.1,0012.81,0009.92,0009.54
2024-03-27 01:31:00,SystemResetWarning,0821.6,5.01,000.00,020.9,020.1,000.0,029.5,022.7,16.6,0002.8,0012.80,0009.94,0009.52
2024-03-27 01:32:00,SystemResetWarning,0821.6,4.99,000.00,020.9,020.1,000.0,029.5,022.7,16.6,0002.5,0012.66,0009.89,0009.47
2024-03-27 01:33:00,SystemResetWarning,0821.6,4.99,000.00,020.9,020.1,000.0,029.5,022.7,16.6,0002.3,0012.50,0009.85,0009.45
2024-03-27 01:34:00,SystemResetWarning,0821.6,4.99,000.00,020.9,020.1,000.0,029.5,022.7,16.5,0001.7,0012.37,0009.81,0009.40
2024-03-27 01:35:00,SystemResetWarning,0821.7,5.00,000.00,020.9,020.1,000.0,029.4,022.7,16.4,0001.6,0012.33,0009.76,0009.35
2024-03-27 01:36:00,SystemResetWarning,0821.7,5.00,000.00,020.8,020.1,000.0,029.4,022.7,16.4,0001.2,0012.26,0009.70,0009.29
2024-03-27 01:37:00,SystemResetWarning,0821.7,5.01,000.00,020.8,020.0,000.0,029.4,022.6,16.7,0001.0,0012.15,0009.63,0009.25
2024-03-27 01:38:00,SystemResetWarning,0821.7,5.00,000.00,020.8,020.0,000.0,029.4,022.6,16.9,0000.4,0012.27,0009.61,0009.23
2024-03-27 01:39:00,SystemResetWarning,0821.7,5.00,000.00,020.8,020.0,000.0,029.4,022.6,17.0,0000.1,0012.42,0009.60,0009.19
2024-03-27 01:40:00,SystemResetWarning,0821.7,5.00,000.00,020.8,020.0,000.0,029.4,022.6,17.0,0000.2,0013.16,0009.59,0009.18
2024-03-27 01:41:00,SystemResetWarning,0821.7,4.99,000.00,020.8,019.9,000.0,029.4,022.6,17.0,0000.4,0013.25,0009.57,0009.17
2024-03-27 01:42:00,SystemResetWarning,0821.8,4.99,000.00,020.8,019.9,000.0,029.4,022.6,16.9,0000.8,0013.10,0009.54,0009.15
2024-03-27 01:43:00,SystemResetWarning,0821.8,5.00,000.00,020.7,019.9,000.0,029.4,022.5,17.0,0001.1,0013.13,0009.53,0009.15
2024-03-27 01:44:00,SystemResetWarning,0821.8,5.01,000.00,020.7,019.8,000.0,029.4,022.5,17.0,0000.9,0013.75,0009.50,0009.13
2024-03-27 01:45:00,SystemResetWarning,0821.8,5.01,000.00,020.7,019.8,000.0,029.4,022.5,17.0,0001.3,0013.92,0009.51,0009.13
2024-03-27 01:46:00,SystemResetWarning,0821.8,5.00,000.00,020.7,019.8,000.0,029.4,022.5,17.3,0001.1,0014.01,0009.52,0009.15
2024-03-27 01:47:00,SystemResetWarning,0821.8,4.99,000.00,020.7,019.7,000.0,029.4,022.5,17.4,0001.3,0014.63,0009.61,0009.18
2024-03-27 01:48:00,SystemResetWarning,0821.8,4.99,000.00,020.7,019.7,000.0,029.4,022.5,17.3,0001.4,0014.97,0009.70,0009.21
2024-03-27 01:49:00,SystemResetWarning,0821.8,5.01,000.00,020.6,019.7,000.0,029.3,022.4,17.2,0001.2,0015.24,0009.67,0009.19
2024-03-27 01:50:00,SystemResetWarning,0821.9,5.01,000.00,020.6,019.7,000.0,029.3,022.4,17.5,0001.2,0015.43,0009.67,0009.21
2024-03-27 01:51:00,SystemResetWarning,0821.9,5.00,000.00,020.6,019.6,000.0,029.3,022.4,18.2,0001.0,0014.87,0009.69,0009.23
2024-03-27 01:52:00,SystemResetWarning,0821.9,5.00,000.00,020.6,019.6,000.0,029.3,022.4,18.6,0000.6,0014.59,0009.74,0009.27
2024-03-27 01:53:00,SystemResetWarning,0821.9,5.00,000.00,020.6,019.5,000.0,029.3,022.3,18.7,0000.3,0015.00,0009.82,0009.33
2024-03-27 01:54:00,SystemResetWarning,0821.9,4.99,000.00,020.5,019.5,000.0,029.3,022.3,18.5,0000.0,0015.11,0009.91,0009.39
2024-03-27 01:55:00,SystemResetWarning,0821.9,4.99,000.00,020.5,019.5,000.0,029.3,022.2,18.4,0000.2,0014.65,0009.96,0009.44
2024-03-27 01:56:00,SystemResetWarning,0822.0,5.00,000.00,020.5,019.4,000.0,029.2,022.2,18.5,0000.1,0014.36,0010.01,0009.48
2024-03-27 01:57:00,SystemResetWarning,0822.0,5.02,000.00,020.5,019.4,000.0,029.2,022.2,18.3,0000.4,0014.44,0010.06,0009.49
2024-03-27 01:58:00,SystemResetWarning,0822.0,5.01,000.00,020.4,019.4,000.0,029.2,022.2,17.9,0000.3,0014.00,0010.05,0009.50
2024-03-27 01:59:00,SystemResetWarning,0822.0,4.99,000.00,020.4,019.4,000.0,029.2,022.2,17.8,0000.3,0013.68,0009.96,0009.49
